MST,Max TemperatureF,Mean TemperatureF,Min TemperatureF,Max Dew PointF,MeanDew PointF,Min DewpointF,Max Humidity, Mean Humidity, Min Humidity, Max Sea Level PressureIn, Mean Sea Level PressureIn, Min Sea Level PressureIn, Max VisibilityMiles, Mean VisibilityMiles, Min VisibilityMiles, Max Wind SpeedMPH, Mean Wind SpeedMPH, Max Gust SpeedMPH,PrecipitationIn, CloudCover, Events, WindDirDegrees
2011-11-1,41,35,28,35,29,24,96,85,73,30.39,30.12,29.93,10,3,0,21,14,29,0.50,8,Fog-Rain-Snow,51
2011-11-2,29,21,12,25,18,12,100,79,57,30.63,30.49,30.31,10,10,10,27,15,33,0.00,2,Fog,227
2011-11-3,42,34,26,23,18,12,57,49,41,30.40,30.09,29.82,10,10,10,39,25,53,0.00,0,,213
2011-11-4,59,43,27,26,22,18,72,48,24,29.82,29.66,29.52,10,10,10,28,14,45,0.00,0,,218
2011-11-5,48,37,25,34,26,22,85,69,53,29.66,29.49,29.36,10,9,2,15,8,30,T,6,Snow,292
2011-11-6,39,30,21,20,14,9,81,58,35,30.04,29.87,29.68,10,10,10,35,18,43,0.00,0,,228
2011-11-7,44,30,15,19,17,12,84,61,38,30.19,30.09,29.98,10,10,10,12,6,23,0.00,0,,264
2011-11-8,41,29,16,18,13,10,84,58,32,30.43,30.25,30.09,10,10,10,17,9,23,0.00,0,,255
2011-11-9,42,30,17,18,14,12,80,55,29,30.58,30.45,30.32,10,10,10,22,12,28,0.00,0,,229
2011-11-10,52,41,30,14,12,10,49,34,19,30.35,30.15,29.99,10,10,10,29,21,43,0.00,0,,219
2011-11-11,54,43,32,14,11,7,38,27,15,29.98,29.80,29.54,10,10,10,29,21,37,0.00,0,,220
2011-11-12,45,35,25,32,20,10,70,49,27,29.55,29.46,29.36,10,8,0,44,31,59,0.04,4,Fog-Snow,234
2011-11-13,47,37,27,17,14,11,55,42,28,29.60,29.51,29.42,10,10,10,32,21,45,0.00,2,,240
2011-11-14,49,37,24,14,9,2,47,31,15,29.66,29.58,29.47,10,10,10,39,22,52,0.00,0,,258
2011-11-15,33,27,20,19,14,7,88,62,36,30.14,29.92,29.63,10,10,6,18,12,,T,5,Snow,72
2011-11-16,35,23,11,14,4,-10,88,52,16,30.40,30.27,30.14,10,9,4,16,11,24,T,2,Snow,250
2011-11-17,50,39,27,19,13,6,42,34,26,30.14,29.84,29.53,10,10,10,40,26,54,0.00,0,,220
2011-11-18,42,33,23,27,23,16,92,63,34,29.65,29.58,29.48,10,4,0,27,11,39,0.51,7,Fog-Snow,35
2011-11-19,23,5,-14,21,2,-18,96,82,67,30.25,29.82,29.53,10,7,0,13,6,17,0.01,5,Fog-Snow,349
2011-11-20,37,12,-14,29,9,-17,86,78,70,30.36,30.16,29.91,10,10,10,23,9,36,0.00,1,,208
2011-11-21,42,37,31,32,27,23,76,70,64,30.08,30.00,29.94,10,10,10,27,16,33,0.00,0,,224
2011-11-22,45,36,26,27,23,19,69,57,45,30.16,30.11,30.02,10,10,10,29,19,47,0.00,0,,226
2011-11-23,54,46,37,26,24,21,59,46,33,30.14,30.04,29.85,10,10,10,31,22,50,0.00,0,,217
2011-11-24,56,48,40,25,23,20,45,36,26,29.84,29.79,29.72,10,10,10,33,26,50,0.00,0,,216
2011-11-25,50,36,22,27,22,8,88,59,29,30.32,29.93,29.68,10,6,0,33,20,46,0.06,4,Fog-Snow,329
2011-11-26,30,20,9,12,8,3,73,58,42,30.70,30.59,30.34,10,10,10,23,13,32,T,0,,237
2011-11-27,45,36,27,19,15,10,55,44,33,30.53,30.34,30.14,10,10,10,29,22,44,0.00,0,,218
2011-11-28,52,37,21,26,20,17,88,58,27,30.35,30.23,30.12,10,10,10,21,13,31,0.00,0,,250
2011-11-29,47,33,19,26,23,17,88,63,38,30.34,30.22,29.94,10,10,10,23,14,33,0.00,0,,226
2011-11-30,46,36,26,29,24,21,92,66,40,30.29,30.02,29.79,10,6,1,24,16,38,0.12,5,Snow,4